Flag for Germany Weather past 2 weeks in Kamp-Lintfort, North Rhine-Westphalia, Germany

Now
63 °F

Partly sunny.


Feels Like: 63 °F
Forecast: 52 / 66 °F
Wind: 6 mph from West

Location: Duesseldorf

Current Time: Sep 2, 2015 at 3:05:39 PM

Latest Report: Sep 2, 2015 at 2:00 PM


Visibility: 19 mi

Pressure: 30.01 "Hg

Humidity: 61%

Dew point: 50 °F

Location of Kamp-LintfortLocation

Historic Weather in Kamp-Lintfort — Graph

°F

Kamp-Lintfort temperature yesterday

Maximum temperature yesterday: 69 °F (at 1:00 AM)
Minimum temperature yesterday: 58 °F (at 11:00 PM)
Average temperature yesterday: 63 °F

Past Weeks' High & Low Weather Summary

 TemperatureHumidityPressure
High89 °F (Aug 30, 4:00 PM)98% (Aug 19, 5:00 AM)30.26 "Hg (Aug 19, 5:00 AM)
Low49 °F (Aug 19, 5:00 AM)33% (Aug 23, 2:00 PM)29.53 "Hg (Aug 24, 6:00 PM)
Average67 °F70%29.98 "Hg
* Reported Aug 18 2:00 PM — Sep 2 2:00 PM, Kamp-Lintfort, Weather by CustomWeather, © 2015

Note: Actual official high and low records may vary slightly from our data, if they occured in-between our weather recording intervals... More about our weather records

Advertising

Kamp-Lintfort weather history for previous 24 hours

 ConditionsComfort  
Time TempWeatherWind HumidityBarometerVisibility
2:00 PM
Wed, Sep 2
63 °FPartly sunny.6 mph61%30.01 "Hg19 mi
1:00 PM64 °FScattered clouds.6 mph63%30.02 "Hg19 mi
12:00 PM63 °FScattered clouds.3 mph70%30.03 "Hg22 mi
11:00 AM62 °FScattered clouds.3 mph72%30.04 "Hg22 mi
10:00 AM60 °FPassing clouds.3 mph76%30.05 "Hg17 mi
9:00 AM56 °FScattered clouds.3 mph88%30.05 "Hg11 mi
8:00 AM54 °FPassing clouds.2 mph90%30.05 "Hg8 mi
7:00 AM51 °FScattered clouds.2 mph96%30.06 "Hg7 mi
6:00 AM51 °FPassing clouds.2 mph96%30.06 "Hg9 mi
5:00 AM51 °FClear.3 mph95%30.06 "Hg19 mi
4:00 AM52 °FClear.2 mph95%30.06 "Hg19 mi
3:00 AM53 °FClear.3 mph94%30.07 "Hg19 mi
2:00 AM53 °FClear.3 mph92%30.06 "Hg25 mi
1:00 AM54 °FClear.1 mph90%30.06 "Hg19 mi
11:00 PM
Tue, Sep 1
58 °FPassing clouds.3 mph77%30.05 "Hg19 mi
10:00 PM59 °FPassing clouds.3 mph77%30.04 "Hg19 mi
9:00 PM61 °FPassing clouds.2 mph75%30.02 "Hg19 mi
8:00 PM62 °FScattered clouds.3 mph73%29.99 "Hg25 mi
7:00 PM64 °FPartly sunny.3 mph71%29.98 "Hg19 mi
6:00 PM63 °FPartly sunny.5 mph76%29.97 "Hg19 mi
5:00 PM64 °FOvercast.5 mph76%29.96 "Hg16 mi
4:00 PM63 °FOvercast.5 mph82%29.94 "Hg14 mi
3:00 PM60 °FLight rain. Overcast.6 mph90%29.93 "Hg11 mi
Weather by CustomWeather, © 2015

See weather overviewHow to use our weather pages